#ZEITBEREICH: 01.05.2023 bis 01.05.2024
Datum;Zeit;EIFE F AM1H [%];EIFE NO AM1H [�g/m�];EIFE NO2 AM1H [�g/m�];EIFE O3 AM1H [�g/m�];EIFE PM10F GM24H [�g/m�];EIFE T AM1H [�C];EIFE WG SM1H [m/s];EIFE WR VM1H [�]
01.05.2023;01:00;81,0;<7;<10;56;13;8,5;1,2;131
01.05.2023;02:00;77,4;<7;<10;65;12;8,7;1,2;143
01.05.2023;03:00;76,8;<7;<10;65;11;8,6;0,9;152
01.05.2023;04:00;74,8;<7;<10;68;11;8,7;1,0;150
01.05.2023;05:00;77,8;<7;<10;63;<10;8,2;1,0;158
01.05.2023;06:00;75,3;<7;<10;66;<10;8,3;1,1;170
01.05.2023;07:00;70,7;<7;<10;69;<10;9,1;0,7;
01.05.2023;08:00;67,4;<7;<10;71;<10;10,0;0,3;
01.05.2023;09:00;66,8;<7;<10;65;<10;11,5;0,6;
01.05.2023;10:00;61,0;<7;<10;72;<10;12,8;1,0;
01.05.2023;11:00;56,4;<7;<10;82;<10;13,4;1,5;275
01.05.2023;12:00;58,4;<7;<10;84;<10;13,7;1,9;302
01.05.2023;13:00;57,9;<7;<10;88;<10;13,9;1,5;276
01.05.2023;14:00;70,6;<7;<10;80;<10;12,4;1,6;264
01.05.2023;15:00;69,3;<7;<10;82;<10;12,9;1,1;
01.05.2023;16:00;75,7;<7;<10;77;<10;11,1;1,4;68
01.05.2023;17:00;86,4;<7;<10;76;<10;9,3;1,2;256
01.05.2023;18:00;95,5;<7;<10;79;<10;7,8;0,8;
01.05.2023;19:00;95,5;<7;<10;78;<10;7,8;1,4;261
01.05.2023;20:00;91,1;<7;<10;82;<10;8,6;1,4;298
01.05.2023;21:00;90,9;<7;<10;75;<10;8,6;1,1;282
01.05.2023;22:00;94,1;<7;<10;70;<10;8,3;2,1;303
01.05.2023;23:00;93,7;;;69;10;8,2;2,4;304
01.05.2023;24:00;94,4;<7;<10;;11;8,1;1,7;299
02.05.2023;01:00;95,4;<7;<10;69;12;7,7;1,2;297
02.05.2023;02:00;96,5;<7;<10;67;13;7,3;1,9;303
02.05.2023;03:00;97,4;<7;<10;62;14;7,0;2,2;300
02.05.2023;04:00;98,0;<7;<10;57;14;6,6;2,2;300
02.05.2023;05:00;98,3;<7;<10;61;15;6,5;2,2;304
02.05.2023;06:00;98,4;<7;<10;64;15;6,6;2,4;311
02.05.2023;07:00;98,5;<7;<10;64;15;6,6;2,8;313
02.05.2023;08:00;98,4;<7;<10;59;16;6,5;2,0;327
02.05.2023;09:00;98,6;<7;<10;64;16;6,4;2,1;306
02.05.2023;10:00;98,6;<7;<10;61;16;6,7;2,2;317
02.05.2023;11:00;98,5;<7;<10;62;16;6,6;2,0;317
02.05.2023;12:00;97,8;<7;<10;66;16;7,1;1,9;317
02.05.2023;13:00;96,4;<7;<10;69;16;7,6;2,0;327
02.05.2023;14:00;88,3;<7;<10;68;16;8,2;1,6;331
02.05.2023;15:00;83,2;<7;<10;72;16;8,8;2,3;339
02.05.2023;16:00;73,3;<7;<10;81;16;9,5;2,4;325
02.05.2023;17:00;68,3;<7;<10;87;16;9,1;2,1;331
02.05.2023;18:00;66,8;<7;<10;90;16;9,0;2,1;341
02.05.2023;19:00;68,5;<7;<10;85;16;8,1;1,8;4
02.05.2023;20:00;78,1;<7;<10;73;16;6,2;1,3;38
02.05.2023;21:00;82,9;<7;<10;75;15;4,6;1,4;49
02.05.2023;22:00;82,7;<7;<10;75;15;4,2;1,7;55
02.05.2023;23:00;85,6;<7;<10;67;15;3,4;1,6;48
02.05.2023;24:00;85,9;;;59;14;3,1;1,9;68
03.05.2023;01:00;88,3;<7;<10;;14;2,8;1,9;90
03.05.2023;02:00;87,9;<7;<10;63;13;2,9;1,9;95
03.05.2023;03:00;88,8;<7;<10;59;13;2,6;1,8;105
03.05.2023;04:00;88,3;<7;<10;64;13;2,4;1,7;106
03.05.2023;05:00;88,3;<7;<10;68;13;2,3;1,8;110
03.05.2023;06:00;90,5;<7;<10;58;13;1,8;1,8;110
03.05.2023;07:00;90,3;<7;<10;60;14;2,3;1,7;114
03.05.2023;08:00;84,6;<7;<10;71;14;3,7;1,9;120
03.05.2023;09:00;74,4;<7;<10;82;14;5,4;2,5;113
03.05.2023;10:00;68,2;<7;<10;83;15;7,0;2,8;98
03.05.2023;11:00;64,4;<7;<10;84;15;7,9;3,0;88
03.05.2023;12:00;59,4;<7;<10;84;15;9,7;2,5;105
03.05.2023;13:00;54,4;<7;<10;81;16;11,8;2,2;101
03.05.2023;14:00;51,8;<7;<10;83;16;12,8;2,4;93
03.05.2023;15:00;49,6;<7;<10;91;16;13,6;2,3;99
03.05.2023;16:00;48,1;<7;<10;95;16;14,0;2,2;89
03.05.2023;17:00;51,0;<7;<10;95;16;12,9;2,3;86
03.05.2023;18:00;53,9;<7;<10;95;16;11,9;2,4;84
03.05.2023;19:00;56,9;<7;<10;91;17;11,2;2,2;86
03.05.2023;20:00;63,6;<7;<10;82;17;9,8;1,8;88
03.05.2023;21:00;71,4;<7;<10;67;17;8,6;2,1;87
03.05.2023;22:00;76,1;<7;11;63;17;7,9;2,1;105
03.05.2023;23:00;75,3;<7;<10;70;17;8,0;2,2;116
03.05.2023;24:00;74,6;<7;<10;72;16;7,4;2,4;133
04.05.2023;01:00;72,6;;;73;16;7,0;2,4;137
04.05.2023;02:00;74,1;<7;<10;;16;6,6;1,9;143
04.05.2023;03:00;79,0;<7;<10;58;16;5,8;2,0;146
04.05.2023;04:00;76,4;<7;<10;67;15;6,2;2,2;146
04.05.2023;05:00;73,0;<7;<10;75;15;6,6;2,1;142
04.05.2023;06:00;74,3;8;17;64;14;6,5;1,9;141
04.05.2023;07:00;74,3;<7;11;64;14;7,2;1,9;139
04.05.2023;08:00;72,2;<7;<10;64;14;8,4;1,6;139
04.05.2023;09:00;69,1;<7;<10;69;14;10,9;2,1;147
04.05.2023;10:00;58,8;<7;<10;87;14;13,9;3,3;144
04.05.2023;11:00;52,5;<7;<10;92;14;15,2;3,7;141
04.05.2023;12:00;47,2;<7;<10;95;14;16,8;3,3;140
04.05.2023;13:00;42,0;<7;<10;97;15;19,1;2,5;142
04.05.2023;14:00;35,5;<7;<10;101;15;20,6;2,5;132
04.05.2023;15:00;34,9;<7;<10;103;15;21,0;2,6;133
04.05.2023;16:00;35,8;<7;<10;102;15;21,4;2,6;129
04.05.2023;17:00;39,6;<7;<10;103;15;20,2;1,9;144
04.05.2023;18:00;43,7;<7;<10;100;15;19,0;1,1;160
04.05.2023;19:00;45,2;<7;<10;96;14;18,4;1,5;
04.05.2023;20:00;48,8;<7;<10;103;14;16,4;1,0;176
04.05.2023;21:00;56,4;<7;<10;89;14;15,2;1,2;175
04.05.2023;22:00;60,8;<7;<10;90;14;14,4;0,9;
04.05.2023;23:00;64,6;<7;<10;95;14;14,4;;
04.05.2023;24:00;66,7;<7;<10;92;14;15,3;2,3;250
05.05.2023;01:00;71,4;<7;<10;91;14;14,8;2,2;258
05.05.2023;02:00;75,9;;;87;14;14,0;2,4;255
05.05.2023;03:00;77,3;<7;<10;;14;13,9;2,7;261
05.05.2023;04:00;82,4;<7;<10;81;14;12,9;2,3;261
05.05.2023;05:00;86,8;<7;<10;73;15;12,1;2,2;258
05.05.2023;06:00;88,6;<7;<10;71;15;11,6;2,1;257
05.05.2023;07:00;90,2;<7;<10;62;15;11,6;1,5;251
05.05.2023;08:00;85,8;<7;<10;68;15;13,2;1,4;256
05.05.2023;09:00;75,8;<7;<10;84;15;14,7;1,4;265
05.05.2023;10:00;71,7;<7;<10;87;15;15,4;1,2;275
05.05.2023;11:00;73,6;<7;<10;84;14;15,2;1,3;265
05.05.2023;12:00;85,7;<7;<10;78;14;12,8;1,9;253
05.05.2023;13:00;78,2;<7;<10;80;13;14,5;1,8;255
05.05.2023;14:00;74,1;<7;<10;78;12;15,5;1,9;255
05.05.2023;15:00;73,5;<7;<10;77;12;14,7;2,1;251
05.05.2023;16:00;81,2;<7;<10;80;11;13,3;2,5;257
05.05.2023;17:00;78,6;<7;<10;78;11;13,8;1,9;251
05.05.2023;18:00;73,8;<7;<10;84;11;13,5;2,4;257
05.05.2023;19:00;73,4;<7;<10;88;10;13,1;1,9;265
05.05.2023;20:00;81,2;<7;<10;74;<10;11,3;0,9;
05.05.2023;21:00;87,6;<7;<10;56;<10;10,2;0,2;
05.05.2023;22:00;89,8;<7;<10;50;<10;10,0;0,1;
05.05.2023;23:00;89,8;<7;<10;48;<10;9,8;1,3;249
05.05.2023;24:00;85,9;<7;<10;70;<10;9,6;1,8;255
06.05.2023;01:00;84,4;<7;<10;75;<10;10,1;2,0;255
06.05.2023;02:00;84,5;<7;<10;73;<10;9,8;1,9;249
06.05.2023;03:00;84,6;;;73;<10;9,5;2,0;250
06.05.2023;04:00;85,6;<7;<10;;<10;9,0;2,1;255
06.05.2023;05:00;86,3;<7;<10;71;<10;8,6;1,9;260
06.05.2023;06:00;87,6;<7;<10;69;<10;8,7;1,4;260
06.05.2023;07:00;87,1;<7;<10;68;<10;9,5;1,0;270
06.05.2023;08:00;84,5;<7;<10;70;<10;10,6;0,9;270
06.05.2023;09:00;80,6;<7;<10;73;<10;12,2;0,8;
06.05.2023;10:00;72,8;<7;<10;76;<10;13,9;0,8;
06.05.2023;11:00;69,9;<7;<10;77;<10;14,4;0,6;
06.05.2023;12:00;64,6;<7;<10;81;<10;15,4;0,9;
06.05.2023;13:00;79,8;<7;<10;73;<10;13,9;0,8;
06.05.2023;14:00;90,9;<7;<10;64;<10;12,8;0,7;
06.05.2023;15:00;89,5;<7;<10;62;<10;13,4;0,6;
06.05.2023;16:00;87,9;<7;<10;63;<10;13,9;0,2;
06.05.2023;17:00;87,5;<7;<10;57;<10;14,3;0,8;
06.05.2023;18:00;90,7;<7;<10;48;<10;13,3;0,9;
06.05.2023;19:00;93,5;<7;<10;40;<10;12,7;0,7;
06.05.2023;20:00;94,7;<7;<10;36;<10;12,6;0,3;
06.05.2023;21:00;95,4;<7;<10;29;<10;12,0;0,4;
06.05.2023;22:00;96,4;<7;<10;18;<10;11,4;0,4;
06.05.2023;23:00;96,9;<7;<10;27;<10;11,4;0,8;164
06.05.2023;24:00;96,4;<7;<10;36;<10;11,1;1,0;167
07.05.2023;01:00;95,3;<7;<10;41;<10;11,0;1,0;174
07.05.2023;02:00;94,1;<7;<10;41;<10;11,0;0,9;173
07.05.2023;03:00;91,5;<7;<10;53;<10;11,2;0,8;
07.05.2023;04:00;92,4;;;37;<10;11,1;1,0;163
07.05.2023;05:00;91,7;<7;<10;;<10;11,2;1,0;170
07.05.2023;06:00;91,0;<7;<10;49;<10;11,2;1,0;162
07.05.2023;07:00;88,9;<7;<10;53;<10;11,8;0,5;
07.05.2023;08:00;85,2;<7;<10;54;<10;12,9;0,5;
07.05.2023;09:00;80,0;<7;<10;58;<10;14,3;0,4;
07.05.2023;10:00;71,2;<7;<10;76;<10;16,1;0,5;
07.05.2023;11:00;64,1;<7;<10;83;<10;17,2;1,0;185
07.05.2023;12:00;67,3;<7;<10;77;<10;17,0;1,7;312
07.05.2023;13:00;73,6;<7;<10;75;<10;16,0;2,1;24
07.05.2023;14:00;76,5;<7;<10;74;<10;15,7;1,2;21
07.05.2023;15:00;83,6;<7;<10;72;<10;15,0;1,3;
07.05.2023;16:00;85,2;<7;<10;71;<10;15,0;2,2;312
07.05.2023;17:00;83,5;<7;<10;74;<10;14,9;2,2;312
07.05.2023;18:00;89,7;<7;<10;69;<10;14,2;2,0;318
07.05.2023;19:00;93,9;<7;<10;59;<10;13,1;1,3;7
07.05.2023;20:00;96,5;<7;<10;62;<10;12,5;1,7;349
07.05.2023;21:00;97,2;<7;<10;52;<10;12,7;1,5;331
07.05.2023;22:00;97,5;<7;<10;38;<10;12,8;0,6;
07.05.2023;23:00;97,6;<7;<10;31;<10;12,6;0,3;
07.05.2023;24:00;97,6;<7;<10;29;<10;12,4;0,0;
08.05.2023;01:00;97,9;<7;<10;41;<10;12,2;1,1;
08.05.2023;02:00;98,2;<7;<10;33;<10;12,4;0,6;
08.05.2023;03:00;98,5;<7;<10;43;<10;12,2;1,7;308
08.05.2023;04:00;98,6;<7;<10;49;<10;12,0;1,3;313
08.05.2023;05:00;98,6;;;41;<10;11,8;0,3;
08.05.2023;06:00;98,8;<7;<10;;10;11,2;0,2;
08.05.2023;07:00;98,8;<7;<10;33;11;11,7;0,0;
08.05.2023;08:00;98,7;<7;<10;40;12;12,2;0,2;
08.05.2023;09:00;98,1;<7;<10;49;13;12,6;0,4;
08.05.2023;10:00;98,1;<7;<10;52;13;12,8;0,7;
08.05.2023;11:00;90,2;<7;<10;67;14;14,3;1,1;310
08.05.2023;12:00;85,8;<7;<10;62;14;15,1;0,8;
08.05.2023;13:00;84,3;<7;<10;61;15;15,5;1,1;10
08.05.2023;14:00;92,1;<7;<10;59;15;15,1;1,5;1
08.05.2023;15:00;92,5;<7;<10;57;16;14,6;1,5;34
08.05.2023;16:00;93,2;<7;<10;58;16;14,6;1,3;73
08.05.2023;17:00;90,0;<7;<10;63;15;14,6;1,0;
08.05.2023;18:00;88,7;<7;<10;63;15;14,5;0,8;
08.05.2023;19:00;90,7;<7;<10;54;15;14,1;0,6;
08.05.2023;20:00;93,5;<7;<10;40;15;13,5;0,8;
08.05.2023;21:00;95,5;<7;<10;34;15;13,0;0,5;
08.05.2023;22:00;96,4;<7;<10;33;15;12,9;0,6;
08.05.2023;23:00;95,7;<7;<10;39;15;12,9;0,9;
08.05.2023;24:00;96,5;<7;<10;46;15;12,9;1,1;279
09.05.2023;01:00;98,2;<7;<10;39;15;12,2;0,6;
09.05.2023;02:00;98,7;<7;<10;31;15;12,0;0,4;
09.05.2023;03:00;98,7;<7;<10;28;15;11,9;0,3;
09.05.2023;04:00;98,8;<7;<10;23;15;11,8;1,0;152
09.05.2023;05:00;98,7;<7;<10;21;15;11,8;1,1;
09.05.2023;06:00;98,6;;;31;15;11,5;1,1;
09.05.2023;07:00;97,7;<7;<10;;15;11,4;1,2;
09.05.2023;08:00;93,7;<7;<10;41;14;12,1;1,0;
09.05.2023;09:00;88,2;<7;<10;44;14;13,3;1,4;
09.05.2023;10:00;82,8;<7;<10;51;13;14,4;1,7;184
09.05.2023;11:00;82,7;<7;<10;51;13;14,5;1,6;184
09.05.2023;12:00;81,8;<7;<10;51;13;14,6;1,6;171
09.05.2023;13:00;82,4;<7;<10;50;12;14,5;1,5;
09.05.2023;14:00;87,9;<7;<10;45;12;14,0;1,4;
09.05.2023;15:00;92,4;<7;<10;46;12;13,3;1,3;
09.05.2023;16:00;95,0;<7;<10;46;11;12,7;1,4;
09.05.2023;17:00;96,2;<7;<10;46;11;12,4;1,0;
09.05.2023;18:00;96,6;<7;<10;46;11;11,8;1,2;
09.05.2023;19:00;96,2;<7;<10;54;11;10,7;1,7;252
09.05.2023;20:00;97,4;<7;<10;57;11;9,8;2,2;260
09.05.2023;21:00;98,1;<7;<10;53;10;9,4;2,0;263
09.05.2023;22:00;98,5;<7;<10;48;<10;9,5;1,8;263
09.05.2023;23:00;98,7;<7;<10;45;<10;9,6;2,1;268
09.05.2023;24:00;98,8;<7;<10;50;<10;9,6;1,6;264
10.05.2023;01:00;98,9;<7;<10;48;<10;9,7;1,5;266
10.05.2023;02:00;98,9;<7;<10;63;<10;9,6;2,0;269
10.05.2023;03:00;99,0;<7;<10;67;<10;9,6;1,9;268
10.05.2023;04:00;99,0;<7;<10;66;<10;9,5;1,9;266
10.05.2023;05:00;99,0;<7;<10;62;<10;9,3;2,4;259
10.05.2023;06:00;99,0;<7;<10;65;<10;8,9;2,1;254
10.05.2023;07:00;99,2;;;59;<10;9,2;2,3;251
10.05.2023;08:00;99,1;<7;<10;55;<10;9,4;2,3;256
10.05.2023;09:00;99,0;<7;<10;54;<10;9,2;1,9;272
10.05.2023;10:00;99,0;<7;<10;57;<10;9,1;2,6;259
10.05.2023;11:00;98,6;<7;<10;65;<10;9,6;2,4;259
10.05.2023;12:00;97,8;<7;<10;69;<10;9,8;2,5;264
10.05.2023;13:00;95,7;<7;<10;69;<10;10,7;2,3;254
10.05.2023;14:00;87,6;<7;<10;68;<10;10,9;1,8;261
10.05.2023;15:00;88,1;<7;<10;68;<10;10,9;1,7;271
10.05.2023;16:00;88,6;<7;<10;67;<10;10,8;1,9;264
10.05.2023;17:00;84,7;<7;<10;73;<10;11,4;1,9;278
10.05.2023;18:00;85,7;<7;<10;69;<10;11,4;1,7;288
10.05.2023;19:00;90,0;<7;<10;62;<10;10,6;1,1;298
10.05.2023;20:00;92,6;<7;<10;63;<10;10,3;1,0;284
10.05.2023;21:00;95,4;<7;<10;59;<10;9,4;1,0;
10.05.2023;22:00;96,0;<7;<10;59;<10;8,9;1,3;264
10.05.2023;23:00;97,8;<7;<10;;<10;8,6;1,4;253
10.05.2023;24:00;97,3;<7;<10;61;<10;7,4;1,2;
11.05.2023;01:00;97,5;<7;<10;52;<10;7,3;0,7;
11.05.2023;02:00;97,0;<7;<10;67;<10;7,6;1,2;274
11.05.2023;03:00;97,9;<7;<10;64;<10;7,8;1,6;270
11.05.2023;04:00;98,3;<7;<10;59;<10;7,6;1,5;268
11.05.2023;05:00;98,5;<7;<10;56;<10;7,4;1,6;271
11.05.2023;06:00;98,7;<7;<10;62;<10;7,6;1,2;280
11.05.2023;07:00;98,8;<7;<10;63;<10;7,9;1,0;283
11.05.2023;08:00;98,9;;;60;<10;8,3;1,9;306
11.05.2023;09:00;98,8;<7;<10;59;<10;8,4;1,4;300
11.05.2023;10:00;98,6;<7;<10;58;<10;8,4;1,1;291
11.05.2023;11:00;98,1;<7;<10;64;<10;8,9;1,2;303
11.05.2023;12:00;95,2;<7;<10;60;<10;9,4;1,7;306
11.05.2023;13:00;94,9;<7;<10;61;<10;9,4;2,1;307
11.05.2023;14:00;91,9;<7;<10;66;<10;10,4;1,7;309
11.05.2023;15:00;86,8;<7;<10;68;<10;11,2;2,2;312
11.05.2023;16:00;86,3;<7;<10;65;<10;11,4;1,7;321
11.05.2023;17:00;85,9;<7;<10;67;10;11,5;1,6;322
11.05.2023;18:00;87,0;<7;<10;66;11;11,1;1,7;324
11.05.2023;19:00;89,8;<7;<10;58;11;10,9;1,2;346
11.05.2023;20:00;93,2;<7;<10;49;11;10,3;1,0;
11.05.2023;21:00;96,4;<7;<10;58;12;9,7;1,7;52
11.05.2023;22:00;97,5;<7;13;47;12;9,3;0,7;
11.05.2023;23:00;97,4;<7;<10;52;13;8,9;0,8;57
11.05.2023;24:00;97,8;<7;<10;;13;8,4;1,0;326
12.05.2023;01:00;98,2;<7;<10;62;13;8,6;1,8;308
12.05.2023;02:00;98,4;<7;<10;64;14;8,6;1,4;303
12.05.2023;03:00;98,6;<7;<10;68;13;8,8;3,1;307
12.05.2023;04:00;98,9;<7;<10;73;13;8,7;2,4;306
12.05.2023;05:00;99,0;<7;<10;63;13;9,0;2,6;305
12.05.2023;06:00;99,1;<7;<10;55;13;9,1;1,6;330
12.05.2023;07:00;99,2;<7;<10;47;12;9,3;1,2;
12.05.2023;08:00;99,2;<7;<10;41;12;9,5;1,3;
12.05.2023;09:00;99,1;;;46;11;9,6;1,3;79
12.05.2023;10:00;99,0;<7;<10;49;11;9,9;2,1;109
12.05.2023;11:00;98,8;<7;<10;55;<10;10,1;2,6;112
12.05.2023;12:00;98,2;<7;<10;62;<10;11,0;2,3;116
12.05.2023;13:00;96,5;<7;<10;66;<10;11,9;2,4;111
12.05.2023;14:00;85,9;<7;<10;75;<10;12,5;2,7;101
12.05.2023;15:00;87,7;<7;<10;70;<10;11,8;2,3;101
12.05.2023;16:00;89,7;<7;<10;64;<10;11,7;1,7;113
12.05.2023;17:00;88,8;<7;<10;66;<10;12,3;1,7;102
12.05.2023;18:00;81,4;<7;<10;70;<10;12,9;2,0;96
12.05.2023;19:00;86,4;<7;<10;57;<10;12,1;1,0;89
12.05.2023;20:00;91,8;<7;<10;46;<10;11,1;0,9;36
12.05.2023;21:00;93,4;<7;<10;46;<10;10,5;1,3;127
12.05.2023;22:00;94,8;<7;<10;38;<10;10,2;1,4;90
12.05.2023;23:00;91,5;<7;<10;54;<10;10,3;1,7;58
12.05.2023;24:00;88,9;<7;<10;63;<10;10,2;1,5;46
13.05.2023;01:00;86,1;<7;<10;;<10;10,0;1,6;43
13.05.2023;02:00;83,3;<7;<10;74;<10;10,0;1,3;31
13.05.2023;03:00;85,0;<7;<10;69;<10;10,1;;
13.05.2023;04:00;84,1;<7;<10;69;<10;10,2;;
13.05.2023;05:00;84,8;<7;10;65;<10;10,1;0,6;
13.05.2023;06:00;82,0;<7;<10;80;<10;9,7;;
13.05.2023;07:00;79,3;<7;<10;78;<10;10,4;1,3;30
13.05.2023;08:00;73,2;<7;<10;80;<10;12,3;;
13.05.2023;09:00;69,0;<7;<10;77;10;13,0;2,0;50
13.05.2023;10:00;65,4;;;81;11;13,8;2,1;56
13.05.2023;11:00;57,9;<7;<10;96;11;15,7;2,4;64
13.05.2023;12:00;52,6;<7;<10;104;12;17,3;2,2;72
13.05.2023;13:00;48,9;<7;<10;111;13;18,3;2,5;58
13.05.2023;14:00;56,1;<7;<10;101;13;16,6;3,3;74
13.05.2023;15:00;84,6;<7;<10;95;13;10,6;2,6;118
13.05.2023;16:00;77,6;<7;<10;79;13;12,9;1,3;151
13.05.2023;17:00;57,0;<7;<10;99;13;15,3;2,2;96
13.05.2023;18:00;59,5;<7;<10;96;13;14,4;2,1;79
13.05.2023;19:00;68,6;<7;<10;86;13;13,1;1,9;70
13.05.2023;20:00;74,8;<7;<10;85;13;12,3;1,8;336
13.05.2023;21:00;73,7;<7;<10;96;13;10,8;0,8;
13.05.2023;22:00;68,6;<7;<10;106;13;10,6;0,9;32
13.05.2023;23:00;69,2;<7;<10;105;13;10,5;1,3;45
13.05.2023;24:00;71,4;<7;<10;99;13;10,4;1,4;43
14.05.2023;01:00;77,7;<7;<10;87;13;10,0;1,0;
14.05.2023;02:00;78,0;<7;<10;;13;9,7;1,1;330
14.05.2023;03:00;76,3;<7;<10;92;13;9,8;1,5;21
14.05.2023;04:00;77,1;<7;<10;83;14;9,5;1,5;45
14.05.2023;05:00;74,6;<7;<10;89;14;9,5;1,3;22
14.05.2023;06:00;82,5;<7;<10;79;14;9,2;1,7;307
14.05.2023;07:00;81,7;<7;<10;81;14;9,9;1,6;310
14.05.2023;08:00;74,1;<7;14;75;14;12,0;1,4;341
14.05.2023;09:00;71,0;<7;<10;79;14;13,5;1,5;333
14.05.2023;10:00;65,0;<7;<10;82;14;15,2;1,7;350
14.05.2023;11:00;67,6;;;73;14;14,9;2,3;332
14.05.2023;12:00;75,4;<7;11;71;15;14,0;2,2;319
14.05.2023;13:00;66,6;<7;<10;96;16;15,7;2,4;321
14.05.2023;14:00;54,3;<7;<10;109;16;16,6;2,4;331
14.05.2023;15:00;52,3;<7;<10;113;17;16,4;2,4;331
14.05.2023;16:00;54,8;<7;<10;112;17;16,0;2,9;343
14.05.2023;17:00;56,2;<7;<10;114;18;15,7;2,5;324
14.05.2023;18:00;58,2;<7;<10;112;19;14,9;2,4;313
14.05.2023;19:00;61,3;<7;<10;107;19;14,5;2,0;309
14.05.2023;20:00;70,1;<7;<10;91;19;13,1;1,5;313
14.05.2023;21:00;79,3;<7;<10;81;20;12,0;1,6;304
14.05.2023;22:00;79,3;<7;<10;79;21;11,9;2,0;306
14.05.2023;23:00;81,5;<7;<10;82;21;11,4;1,2;297
14.05.2023;24:00;86,0;<7;<10;80;22;10,9;2,5;305
15.05.2023;01:00;93,5;<7;<10;60;22;10,7;2,0;299
15.05.2023;02:00;97,1;<7;<10;52;23;10,5;2,7;302
15.05.2023;03:00;97,3;<7;<10;;23;10,1;2,1;298
15.05.2023;04:00;97,5;<7;<10;57;24;9,6;1,8;294
15.05.2023;05:00;97,8;<7;<10;47;24;9,0;1,8;291
15.05.2023;06:00;98,3;<7;<10;49;24;8,8;1,3;279
15.05.2023;07:00;98,4;<7;<10;54;24;9,1;1,9;295
15.05.2023;08:00;97,9;<7;<10;58;24;8,4;1,5;291
15.05.2023;09:00;97,4;<7;<10;64;25;8,4;2,2;298
15.05.2023;10:00;78,0;<7;<10;101;26;11,0;2,8;308
15.05.2023;11:00;63,4;<7;<10;109;28;12,9;2,6;307
15.05.2023;12:00;60,7;;;107;28;14,2;2,5;312
15.05.2023;13:00;54,3;<7;<10;115;30;14,6;3,2;313
15.05.2023;14:00;55,7;<7;<10;117;34;14,9;3,6;311
15.05.2023;15:00;55,8;<7;<10;119;36;15,5;3,2;302
15.05.2023;16:00;69,3;<7;<10;107;37;13,4;3,7;307
15.05.2023;17:00;70,9;<7;<10;93;37;12,2;4,3;308
15.05.2023;18:00;79,8;<7;<10;79;38;10,9;3,8;305
15.05.2023;19:00;89,2;<7;13;58;39;10,1;2,0;295
15.05.2023;20:00;96,0;<7;11;51;38;9,0;2,7;305
15.05.2023;21:00;97,6;<7;<10;54;38;8,2;2,9;302
15.05.2023;22:00;98,0;<7;<10;62;37;7,5;3,6;306
15.05.2023;23:00;98,2;<7;<10;67;36;7,0;4,5;310
15.05.2023;24:00;98,4;<7;<10;68;35;6,7;5,0;307
16.05.2023;01:00;98,5;<7;<10;69;34;6,3;4,6;309
16.05.2023;02:00;98,5;<7;<10;71;33;6,1;4,2;312
16.05.2023;03:00;98,4;<7;<10;75;32;5,4;3,7;322
16.05.2023;04:00;98,6;<7;<10;;31;4,9;3,6;327
16.05.2023;05:00;98,5;<7;<10;68;31;4,4;3,1;332
16.05.2023;06:00;98,5;<7;<10;63;30;4,0;3,4;338
16.05.2023;07:00;98,5;<7;<10;60;30;3,7;3,0;341
16.05.2023;08:00;98,4;<7;<10;62;29;3,9;2,8;341
16.05.2023;09:00;98,0;<7;<10;64;28;4,6;2,5;343
16.05.2023;10:00;97,3;<7;<10;65;26;5,6;2,4;336
16.05.2023;11:00;88,3;<7;<10;68;24;6,8;2,7;330
16.05.2023;12:00;77,2;<7;<10;69;22;7,6;2,5;331
16.05.2023;13:00;71,7;;;73;20;8,4;3,0;327
16.05.2023;14:00;62,9;<7;<10;78;15;9,6;3,3;322
16.05.2023;15:00;66,1;<7;<10;75;12;9,5;3,0;330
16.05.2023;16:00;60,8;<7;<10;79;10;10,1;3,1;333
16.05.2023;17:00;64,3;<7;<10;78;<10;9,2;3,0;334
16.05.2023;18:00;68,9;<7;<10;74;<10;8,8;2,9;337
16.05.2023;19:00;71,8;<7;<10;71;<10;8,2;2,7;339
16.05.2023;20:00;75,9;<7;<10;65;<10;7,6;2,1;327
16.05.2023;21:00;78,4;<7;<10;61;<10;7,0;1,5;335
16.05.2023;22:00;81,4;<7;<10;55;<10;6,6;1,4;336
16.05.2023;23:00;83,7;<7;<10;55;<10;6,2;1,7;341
16.05.2023;24:00;85,8;<7;<10;55;<10;6,1;1,8;343
17.05.2023;01:00;88,9;<7;<10;60;<10;5,9;1,8;340
17.05.2023;02:00;91,6;<7;<10;57;<10;5,7;1,7;335
17.05.2023;03:00;94,9;<7;<10;50;<10;5,4;1,6;345
17.05.2023;04:00;96,8;<7;<10;46;<10;5,0;1,6;327
17.05.2023;05:00;97,5;<7;<10;;<10;4,6;2,1;332
17.05.2023;06:00;97,8;<7;<10;57;<10;4,5;2,0;326
17.05.2023;07:00;97,5;<7;<10;57;<10;4,8;1,9;319
17.05.2023;08:00;97,6;<7;<10;58;<10;5,2;2,2;317
17.05.2023;09:00;97,4;<7;<10;59;<10;6,0;2,3;328
17.05.2023;10:00;84,8;<7;<10;67;<10;7,7;2,5;343
17.05.2023;11:00;69,3;<7;<10;72;<10;8,8;2,9;346
17.05.2023;12:00;63,0;<7;<10;74;<10;9,7;2,6;356
17.05.2023;13:00;54,6;<7;<10;80;<10;11,3;2,6;9
17.05.2023;14:00;52,9;;;82;10;11,6;2,7;358
17.05.2023;15:00;52,4;<7;<10;85;10;11,9;2,9;343
17.05.2023;16:00;51,8;<7;<10;85;10;12,2;2,9;347
17.05.2023;17:00;54,4;<7;<10;85;11;11,3;2,8;342
17.05.2023;18:00;57,1;<7;<10;82;11;10,7;2,2;34
17.05.2023;19:00;58,9;<7;<10;80;11;9,7;2,5;32
17.05.2023;20:00;64,1;<7;<10;77;11;8,3;1,7;33
17.05.2023;21:00;71,7;<7;<10;72;11;6,7;;
17.05.2023;22:00;72,7;<7;<10;74;11;6,1;;
17.05.2023;23:00;74,9;<7;<10;70;12;5,8;2,0;25
17.05.2023;24:00;77,1;<7;<10;64;12;5,2;2,0;60
18.05.2023;01:00;80,5;<7;<10;57;12;4,4;1,7;81
18.05.2023;02:00;83,4;<7;<10;53;13;4,1;1,7;93
18.05.2023;03:00;83,2;<7;<10;57;13;4,0;1,8;102
18.05.2023;04:00;84,0;<7;<10;57;12;3,7;1,6;95
18.05.2023;05:00;83,5;<7;<10;56;12;3,5;1,6;93
18.05.2023;06:00;84,7;<7;<10;;12;3,5;1,4;91
18.05.2023;07:00;82,5;<7;<10;53;12;4,2;1,1;95
18.05.2023;08:00;73,7;<7;<10;66;12;5,8;1,5;97
18.05.2023;09:00;62,9;<7;<10;80;12;7,4;2,6;67
18.05.2023;10:00;58,2;<7;<10;80;12;9,3;2,2;73
18.05.2023;11:00;57,2;<7;<10;82;12;10,1;2,2;76
18.05.2023;12:00;54,6;<7;<10;86;12;10,9;2,3;72
18.05.2023;13:00;50,5;<7;<10;91;12;12,2;2,5;70
18.05.2023;14:00;48,9;<7;<10;96;12;13,0;2,4;61
18.05.2023;15:00;48,9;;;98;13;13,5;2,7;61
18.05.2023;16:00;49,8;<7;<10;97;13;13,7;2,3;61
18.05.2023;17:00;54,3;<7;<10;97;13;12,4;2,0;57
18.05.2023;18:00;58,8;<7;<10;91;13;11,8;1,7;55
18.05.2023;19:00;63,5;<7;<10;86;13;11,0;1,9;27
18.05.2023;20:00;68,8;<7;<10;80;13;9,9;;
18.05.2023;21:00;72,9;<7;<10;79;13;8,6;;
18.05.2023;22:00;75,5;<7;<10;75;13;7,8;;
18.05.2023;23:00;77,0;<7;<10;71;13;7,4;1,8;30
18.05.2023;24:00;79,4;<7;<10;67;13;6,8;1,9;54
19.05.2023;01:00;81,5;<7;<10;63;13;6,5;1,9;86
19.05.2023;02:00;80,7;<7;<10;64;13;6,8;1,7;110
19.05.2023;03:00;80,1;<7;<10;65;13;6,7;1,9;106
19.05.2023;04:00;77,8;<7;<10;66;13;6,5;1,7;105
19.05.2023;05:00;80,7;<7;<10;55;12;5,9;1,9;86
19.05.2023;06:00;82,7;<7;<10;54;12;5,4;1,8;81
19.05.2023;07:00;79,6;<7;<10;;12;6,3;1,4;93
19.05.2023;08:00;74,4;<7;<10;61;12;7,8;1,2;
19.05.2023;09:00;64,5;<7;<10;72;12;9,9;2,0;82
19.05.2023;10:00;57,5;<7;<10;77;12;11,9;2,4;82
19.05.2023;11:00;51,7;<7;<10;84;12;13,4;2,6;95
19.05.2023;12:00;51,4;<7;<10;86;12;14,3;2,6;71
19.05.2023;13:00;49,9;<7;<10;93;12;14,8;2,6;81
19.05.2023;14:00;47,7;<7;<10;101;12;15,3;2,4;66
19.05.2023;15:00;45,5;<7;<10;104;12;15,7;2,4;76
19.05.2023;16:00;45,5;;;105;12;15,9;2,5;64
19.05.2023;17:00;47,8;<7;<10;103;12;15,4;2,0;53
19.05.2023;18:00;51,3;<7;<10;102;12;14,8;2,4;47
19.05.2023;19:00;54,5;<7;<10;97;12;14,2;2,3;37
19.05.2023;20:00;56,8;<7;<10;94;11;13,3;2,1;35
19.05.2023;21:00;60,1;<7;<10;91;11;11,8;1,7;29
19.05.2023;22:00;63,7;<7;<10;86;11;10,8;2,3;39
19.05.2023;23:00;67,4;<7;<10;76;11;10,2;2,4;56
19.05.2023;24:00;71,9;<7;<10;67;11;9,6;2,3;76
20.05.2023;01:00;73,2;<7;<10;67;11;9,4;1,9;89
20.05.2023;02:00;77,1;<7;<10;58;11;8,6;2,1;86
20.05.2023;03:00;77,3;<7;<10;59;11;8,4;2,4;78
20.05.2023;04:00;76,9;<7;<10;61;10;8,3;2,5;73
20.05.2023;05:00;78,4;<7;<10;59;10;7,8;2,1;71
20.05.2023;06:00;80,7;<7;<10;55;10;7,5;2,2;61
20.05.2023;07:00;80,4;<7;10;58;10;8,3;2,7;66
20.05.2023;08:00;77,8;<7;<10;66;10;9,3;2,8;66
20.05.2023;09:00;74,9;<7;<10;66;10;10,7;2,7;65
20.05.2023;10:00;70,2;<7;<10;70;11;12,6;2,9;75
20.05.2023;11:00;70,4;<7;<10;72;11;13,1;3,0;62
20.05.2023;12:00;66,9;<7;<10;77;11;14,4;2,8;72
20.05.2023;13:00;63,6;<7;<10;79;11;15,7;3,3;63
20.05.2023;14:00;66,7;<7;<10;79;11;15,2;3,1;63
20.05.2023;15:00;67,3;<7;<10;76;11;15,3;3,0;72
20.05.2023;16:00;71,2;<7;<10;73;11;14,5;2,6;64
20.05.2023;17:00;71,1;;;74;11;14,7;2,6;57
20.05.2023;18:00;72,0;<7;<10;74;11;13,9;2,5;67
20.05.2023;19:00;74,9;<7;<10;69;11;13,4;2,1;62
20.05.2023;20:00;78,1;<7;<10;65;11;12,6;1,9;64
20.05.2023;21:00;83,8;<7;<10;60;11;11,0;1,9;56
20.05.2023;22:00;87,6;<7;<10;57;11;10,2;2,1;57
20.05.2023;23:00;88,9;<7;<10;;12;10,1;2,3;77
20.05.2023;24:00;89,6;<7;<10;54;12;10,2;2,3;83
21.05.2023;01:00;90,1;<7;<10;50;12;10,2;1,4;90
21.05.2023;02:00;92,1;<7;<10;40;13;9,8;1,6;80
21.05.2023;03:00;92,8;<7;<10;36;13;9,9;1,3;69
21.05.2023;04:00;93,9;<7;<10;36;14;9,6;1,5;51
21.05.2023;05:00;94,5;<7;<10;38;14;9,6;1,3;36
21.05.2023;06:00;94,1;<7;<10;39;15;9,8;1,6;49
21.05.2023;07:00;93,3;<7;<10;40;15;10,5;1,5;33
21.05.2023;08:00;88,3;<7;10;46;15;11,9;1,7;17
21.05.2023;09:00;80,4;<7;<10;58;16;14,1;2,0;
21.05.2023;10:00;73,9;<7;<10;57;16;15,9;2,1;13
21.05.2023;11:00;74,4;<7;11;57;16;16,0;1,8;31
21.05.2023;12:00;71,5;<7;<10;62;16;17,3;2,1;348
21.05.2023;13:00;69,8;<7;<10;70;17;18,2;2,3;359
21.05.2023;14:00;67,7;<7;<10;77;17;19,0;2,1;32
21.05.2023;15:00;65,1;<7;<10;90;18;19,7;2,2;24
21.05.2023;16:00;63,3;<7;<10;99;18;20,2;2,1;29
21.05.2023;17:00;66,2;<7;<10;109;19;19,4;2,1;47
21.05.2023;18:00;72,6;;;107;19;18,3;1,5;17
21.05.2023;19:00;79,2;<7;<10;96;20;17,1;1,6;346
21.05.2023;20:00;82,4;<7;<10;93;20;16,3;1,6;339
21.05.2023;21:00;85,8;<7;<10;87;21;15,6;1,8;343
21.05.2023;22:00;88,0;<7;<10;80;21;15,2;1,8;348
21.05.2023;23:00;89,4;<7;<10;76;22;14,9;1,5;335
21.05.2023;24:00;91,1;<7;<10;;22;14,4;1,6;317
22.05.2023;01:00;91,4;<7;<10;73;22;14,4;2,1;311
22.05.2023;02:00;92,5;<7;<10;74;23;14,0;2,9;305
22.05.2023;03:00;94,2;<7;<10;70;23;13,6;3,0;306
22.05.2023;04:00;96,5;<7;<10;56;24;12,7;1,2;294